[[{"header":{"parameterUnit":"m.s-1","parameterCategory":1,"la1":30.2991,"la2":30.254,"lo1":-89.0895,"lo2":-89.0444,"dy":0.0017,"dx":0.0017,"nx":28,"ny":28,"refTime":"2025-08-07T21:00:00:Z","depth":0,"parameterNumber":2,"parameterNumberName":"U-component_of_WINDS"},"data":[0,0,0,0,0,0,0,0,0,0,0,0,0,0,0,0,0,0,0,0,0,0,0,0,0,0,0,0,0,0,0,0,0,0,0,0,0,0,0,0,0,0,0,0,0,0,0,0,0,0,0,0,0,0,0,0,0,0,-3.7831,-3.7831,0,-3.7807,-3.7807,-3.7807,-3.7737,-3.7735,-3.7734,-3.7732,-3.7709,-3.771,-3.771,0,0,0,0,0,0,0,0,0,0,0,0,0,-3.7818,-3.7818,-3.7831,-3.7831,-3.783,-3.7808,-3.7807,-3.7807,-3.7737,-3.7735,-3.7733,-3.7731,-3.7709,-3.7709,-3.771,0,0,0,0,0,0,0,0,0,0,0,0,0,-3.7812,-3.7818,-3.7831,-3.7793,-3.7789,-3.7808,-3.7807,-3.7807,-3.7737,-3.7735,-3.7733,-3.7731,-3.7708,-3.7709,-3.7711,-3.7765,0,0,-3.7714,-3.7715,0,0,0,0,0,0,0,0,-3.7812,-3.7812,-3.7799,-3.7795,-3.7791,-3.7773,-3.7794,-3.7793,-3.7738,-3.7757,-3.7732,-3.7729,-3.7732,-3.7731,-3.7732,-3.7763,-3.7762,-3.7714,-3.7715,-3.7716,-3.7716,0,0,0,0,0,0,0,-3.7813,-3.7813,-3.7822,-3.7799,-3.7794,-3.7778,-3.7774,-3.7793,-3.7758,-3.7755,-3.775,-3.7748,-3.7729,-3.7731,-3.7731,-3.7762,-3.7714,-3.7715,-3.7716,-3.7717,-3.784,-3.7842,0,0,0,0,0,0,-3.7818,-3.7814,-3.7822,-3.7821,-3.7796,-3.778,-3.7776,-3.7781,-3.7757,-3.7751,-3.775,-3.7745,-3.773,-3.7729,-3.773,-3.7792,-3.7716,-3.7717,-3.7718,-3.7837,-3.784,-3.7843,0,0,0,0,0,0,-3.7818,-3.782,-3.7823,-3.7816,-3.7815,-3.7782,-3.7789,-3.7782,-3.7783,-3.7754,-3.7747,-3.7758,-3.7728,-3.7728,-3.7757,-3.7791,-3.7717,-3.7719,-3.7834,-3.7838,-3.7842,-3.7918,0,0,0,0,0,0,-3.7818,-3.782,-3.7839,-3.7817,-3.7816,-3.785,-3.7791,-3.7783,-3.7785,-3.7778,-3.7759,-3.7754,-3.7726,-3.7756,-3.7758,-3.7791,-3.7719,-3.7831,-3.7836,-3.784,-3.7912,-3.7924,-3.7934,0,0,0,0,0,-3.7818,-3.7861,-3.7841,-3.7842,-3.7839,-3.7852,-3.7852,-3.7819,-3.7788,-3.7808,-3.779,-3.7754,-3.7787,-3.7759,-3.7761,-3.7795,-3.7829,-3.7835,-3.784,-3.7907,-3.7922,-3.7934,0,0,0,0,0,0,-3.7888,-3.7858,-3.7834,-3.7872,-3.7865,-3.784,-3.7864,-3.7835,-3.7837,-3.783,-3.779,-3.7786,-3.7822,-3.7811,-3.7781,-3.7848,-3.7802,-3.7809,-3.7853,-3.7866,-3.7876,-3.7878,-3.772,0,0,0,0,0,-3.7908,-3.7921,-3.7894,-3.7929,-3.7927,-3.7897,-3.7901,-3.7877,-3.7868,-3.7865,-3.7849,-3.7843,-3.7852,-3.7858,-3.7865,-3.7911,-3.7907,-3.7936,-3.7947,-3.7956,-3.7961,-3.7987,-3.8,-3.7862,-3.7862,-3.7862,0,0,-3.7949,-3.7934,-3.7944,-3.7943,-3.7935,-3.795,-3.7895,-3.7912,-3.7923,-3.7868,-3.7894,-3.7883,-3.7874,-3.7912,-3.7928,-3.7905,-3.7999,-3.7963,-3.797,-3.7971,-3.7995,-3.8008,-3.8019,-3.7866,-3.7865,-3.7864,0,0,-3.8031,-3.802,-3.805,-3.8044,-3.8033,-3.8013,-3.802,-3.8001,-3.7991,-3.8017,-3.7977,-3.799,-3.8006,-3.8001,-3.8001,-3.8086,-3.8054,-3.809,-3.8146,-3.8171,-3.8182,-3.8192,-3.8223,-3.8234,-3.8096,-3.8096,-3.8096,0,-3.8082,-3.8103,-3.8068,-3.8089,-3.8091,-3.8043,-3.8073,-3.8069,-3.8061,-3.8064,-3.8038,-3.8059,-3.8049,-3.8087,-3.8108,-3.8109,-3.8117,-3.8091,-3.8183,-3.8193,-3.8201,-3.823,-3.8242,-3.81,-3.81,-3.8099,-3.8099,0,-3.8168,-3.8183,-3.8208,-3.8203,-3.8207,-3.8233,-3.8204,-3.8213,-3.8189,-3.8173,-3.8202,-3.8189,-3.8193,-3.82,-3.8177,-3.8236,-3.8222,-3.819,-3.8144,-3.8219,-3.8246,-3.8257,-3.8107,-3.8105,-3.8104,-3.8103,0,0,-3.829,-3.8268,-3.8278,-3.8276,-3.8262,-3.8273,-3.8299,-3.8303,-3.8312,-3.8309,-3.833,-3.8346,-3.8318,-3.8318,-3.8294,-3.8317,-3.8387,-3.8283,-3.8282,-3.8303,-3.8453,-3.8476,-3.849,-3.8367,-3.8369,-3.837,-3.8454,0,-3.8368,-3.8408,-3.838,-3.8425,-3.844,-3.8396,-3.8418,-3.8413,-3.8399,-3.841,-3.8395,-3.8408,-3.8369,-3.8369,-3.839,-3.8374,-3.8416,-3.8368,-3.8386,-3.8387,-3.8389,-3.8503,-3.8527,-3.8607,-3.8464,-3.8466,-3.8467,0,-3.8463,-3.8466,-3.8513,-3.8499,-3.8504,-3.8524,-3.8528,-3.8539,-3.8533,-3.8522,-3.8524,-3.8495,-3.852,-3.8476,-3.851,-3.8478,-3.8484,-3.8478,-3.8481,-3.848,-3.8431,-3.8506,-3.8631,-3.8643,-3.8483,-3.8482,-3.8481,0,-3.8549,-3.8564,-3.8595,-3.8595,-3.8579,-3.8594,-3.8589,-3.8581,-3.8586,-3.859,-3.8593,-3.86,-3.8603,-3.861,-3.8584,-3.8554,-3.8623,-3.8576,-3.8615,-3.8616,-3.863,-3.8629,-3.8758,-3.8635,-3.8635,-3.8635,-3.8635,0,-3.8638,-3.8669,-3.8633,-3.8652,-3.8686,-3.8654,-3.8689,-3.8679,-3.8673,-3.869,-3.8654,-3.8671,-3.8637,-3.8651,-3.8632,-3.8664,-3.8666,-3.8658,-3.8652,-3.8661,-3.8662,-3.8664,-3.8657,-3.8638,-3.8637,-3.8637,-3.8636,0,-3.8738,-3.8715,-3.8746,-3.873,-3.8727,-3.8753,-3.8739,-3.8757,-3.8742,-3.8764,-3.8767,-3.8744,-3.8759,-3.8735,-3.8747,-3.8734,-3.878,-3.8766,-3.8782,-3.8777,-3.8818,-3.8815,-3.8951,-3.8968,-3.8835,-3.8837,-3.8838,0,-3.8796,-3.8819,-3.8806,-3.8815,-3.8812,-3.8826,-3.8832,-3.8803,-3.8811,-3.8809,-3.8827,-3.884,-3.8847,-3.8874,-3.8859,-3.8869,-3.8855,-3.8902,-3.8856,-3.8865,-3.8856,-3.8855,-3.8857,-3.8911,-3.8913,-3.8914,-3.8915,0,-3.8902,-3.889,-3.89,-3.8908,-3.8916,-3.892,-3.8922,-3.8932,-3.8901,-3.8912,-3.8928,-3.8934,-3.8948,-3.8961,-3.8968,-3.8963,-3.8935,-3.893,-3.894,-3.8948,-3.8957,-3.8953,-3.8807,-3.8927,-3.8926,-3.8925,-3.8924,-3.8924,-3.8982,-3.9002,-3.8996,-3.9009,-3.9008,-3.9011,-3.9028,-3.9016,-3.9028,-3.9037,-3.9019,-3.904,-3.9037,-3.9043,-3.9042,-3.9058,-3.9037,-3.9051,-3.9054,-3.9058,-3.9065,-3.8955,-3.9059,-3.9059,-3.9058,-3.9058,-3.9058,0,-3.9087,-3.9082,-3.9095,-3.9099,-3.911,-3.9083,-3.9085,-3.9096,-3.9114,-3.9114,-3.9123,-3.9143,-3.9156,-3.9143,-3.9155,-3.917,-3.9158,-3.9174,-3.9173,-3.9172,-3.9082,-3.9073,-3.9184,-3.9184,-3.9184,-3.9184,-3.9184,-3.9184,-3.9142,-3.9174,-3.9162,-3.9194,-3.9189,-3.9209,-3.9212,-3.9216,-3.9215,-3.9238,-3.925,-3.9242,-3.9237,-3.9248,-3.926,-3.9256,-3.9262,-3.9284,-3.9275,-3.9191,-3.9178,-3.9166,-3.9158,-3.9285,-3.9285,-3.9364,-3.9365,-3.9365]},{"header":{"parameterUnit":"m.s-1","parameterCategory":1,"la1":30.2991,"la2":30.254,"lo1":-89.0895,"lo2":-89.0444,"dy":0.0017,"dx":0.0017,"nx":28,"ny":28,"refTime":"2025-08-07T21:00:00:Z","depth":0,"parameterNumber":3,"parameterNumberName":"V-component_of_WINDS"},"data":[0,0,0,0,0,0,0,0,0,0,0,0,0,0,0,0,0,0,0,0,0,0,0,0,0,0,0,0,0,0,0,0,0,0,0,0,0,0,0,0,0,0,0,0,0,0,0,0,0,0,0,0,0,0,0,0,0,0,1.2984,1.2984,0,1.2994,1.2994,1.2994,1.3054,1.3056,1.3057,1.3059,1.3065,1.3064,1.3063,0,0,0,0,0,0,0,0,0,0,0,0,0,1.3014,1.3013,1.2984,1.2984,1.2984,1.2994,1.2994,1.2994,1.3054,1.3056,1.3058,1.3059,1.3066,1.3064,1.3063,0,0,0,0,0,0,0,0,0,0,0,0,0,1.301,1.3013,1.2984,1.3015,1.3018,1.2993,1.2994,1.2994,1.3054,1.3056,1.3058,1.306,1.3066,1.3064,1.3063,1.3007,0,0,1.3057,1.3056,0,0,0,0,0,0,0,0,1.301,1.3009,1.301,1.3013,1.3016,1.3025,1.3007,1.2998,1.3053,1.304,1.3059,1.3061,1.305,1.305,1.3046,1.3008,1.3008,1.3057,1.3056,1.3055,1.3055,0,0,0,0,0,0,0,1.301,1.3009,1.2987,1.301,1.3014,1.3028,1.303,1.3006,1.3032,1.3041,1.3046,1.3046,1.3052,1.3048,1.3047,1.3008,1.3057,1.3055,1.3054,1.3054,1.2924,1.2921,0,0,0,0,0,0,1.3007,1.3008,1.2987,1.2988,1.3019,1.3026,1.3028,1.302,1.3033,1.3037,1.3044,1.3049,1.305,1.3049,1.3047,1.2983,1.3055,1.3053,1.3052,1.2926,1.2923,1.2921,0,0,0,0,0,0,1.3007,1.3004,1.2987,1.2999,1.2998,1.3023,1.3013,1.3019,1.3015,1.3035,1.304,1.3036,1.3052,1.305,1.3017,1.2984,1.3053,1.3051,1.2929,1.2925,1.2922,1.2852,0,0,0,0,0,0,1.3008,1.3004,1.2984,1.2999,1.2997,1.2956,1.3012,1.3018,1.3012,1.3019,1.3028,1.3032,1.3053,1.3019,1.3015,1.2982,1.305,1.2932,1.2927,1.2923,1.2858,1.2847,1.2838,0,0,0,0,0,1.3009,1.2963,1.2982,1.2979,1.2973,1.2954,1.2954,1.298,1.3009,1.2989,1.3002,1.3032,1.2989,1.3015,1.3011,1.2977,1.2934,1.2928,1.2923,1.2862,1.2849,1.2838,0,0,0,0,0,0,1.2942,1.2965,1.2987,1.2945,1.2948,1.2965,1.2939,1.2965,1.2958,1.2964,1.2997,1.2999,1.296,1.2966,1.2995,1.2924,1.2966,1.296,1.2921,1.2909,1.2899,1.2897,1.3048,0,0,0,0,0,1.2923,1.2907,1.2928,1.2889,1.2889,1.2914,1.2907,1.2928,1.2931,1.2932,1.2942,1.2943,1.293,1.292,1.2909,1.286,1.2862,1.2835,1.2825,1.2816,1.281,1.2783,1.2771,1.2903,1.2903,1.2903,0,0,1.2882,1.2893,1.2881,1.2876,1.288,1.2862,1.2914,1.2893,1.2879,1.2928,1.2897,1.2905,1.2909,1.2867,1.2849,1.287,1.2774,1.281,1.2803,1.2801,1.2776,1.2764,1.2752,1.2899,1.29,1.2901,0,0,1.2798,1.2806,1.2774,1.2777,1.2784,1.2801,1.2793,1.2807,1.2814,1.2784,1.282,1.2805,1.2781,1.2782,1.2779,1.2697,1.2724,1.2693,1.2639,1.2613,1.2603,1.2593,1.2562,1.2551,1.2687,1.2687,1.2686,0,1.2746,1.2721,1.2753,1.273,1.2726,1.2772,1.2739,1.274,1.2742,1.2738,1.2763,1.2735,1.274,1.2699,1.2679,1.2676,1.2667,1.2691,1.2602,1.2593,1.2585,1.2556,1.2544,1.2683,1.2683,1.2683,1.2684,0,1.2656,1.2639,1.2612,1.2614,1.2608,1.2579,1.2606,1.2596,1.2618,1.2632,1.26,1.2609,1.26,1.2593,1.2613,1.2554,1.2567,1.2596,1.2639,1.2568,1.2541,1.253,1.2677,1.2678,1.2679,1.268,0,0,1.2528,1.255,1.2539,1.254,1.2551,1.2538,1.2512,1.2505,1.2494,1.2495,1.2472,1.2453,1.248,1.2477,1.2498,1.2475,1.2408,1.2508,1.2508,1.2487,1.2342,1.2318,1.2304,1.2427,1.2425,1.2424,1.2341,0,1.2446,1.2403,1.2432,1.2384,1.2367,1.2411,1.2388,1.2392,1.2405,1.2392,1.2407,1.2391,1.243,1.2428,1.2408,1.242,1.2379,1.2427,1.2405,1.2404,1.24,1.2291,1.2265,1.2187,1.2331,1.2329,1.2328,0,1.2344,1.2341,1.2292,1.2306,1.23,1.2279,1.2275,1.2263,1.2268,1.2279,1.2276,1.2304,1.2278,1.2322,1.2287,1.2319,1.2312,1.2317,1.2315,1.2312,1.2359,1.2282,1.2162,1.2149,1.2312,1.2313,1.2314,0,1.2253,1.2237,1.2205,1.2205,1.2222,1.2206,1.2212,1.222,1.2214,1.221,1.2206,1.2199,1.2195,1.2188,1.2213,1.2243,1.2173,1.222,1.218,1.2179,1.2161,1.2161,1.2036,1.2161,1.2161,1.2161,1.2161,0,1.2157,1.2124,1.2164,1.2144,1.2109,1.2143,1.2107,1.2117,1.2124,1.2106,1.2144,1.2126,1.2161,1.2147,1.2166,1.2133,1.2131,1.2138,1.2143,1.2133,1.2132,1.2127,1.2132,1.2158,1.2159,1.2159,1.216,0,1.2048,1.2074,1.2042,1.2061,1.2065,1.2038,1.2054,1.2036,1.2053,1.203,1.2026,1.2051,1.2036,1.2061,1.2049,1.2062,1.2015,1.203,1.2013,1.2017,1.1975,1.1978,1.184,1.1823,1.196,1.1959,1.1958,0,1.1984,1.196,1.1977,1.1969,1.1973,1.1959,1.1953,1.1986,1.1978,1.1983,1.1964,1.1953,1.1945,1.1919,1.1935,1.1926,1.1939,1.1892,1.1938,1.1929,1.1936,1.1936,1.1933,1.1881,1.1879,1.1878,1.1877,0,1.1866,1.188,1.1872,1.1867,1.186,1.1857,1.1858,1.1848,1.1883,1.1872,1.1858,1.1853,1.1841,1.1828,1.1824,1.1829,1.1858,1.1863,1.1853,1.1841,1.1832,1.1834,1.1985,1.1865,1.1866,1.1867,1.1868,1.1868,1.1776,1.1757,1.1766,1.1755,1.1759,1.1759,1.1743,1.1758,1.1747,1.1741,1.1761,1.1742,1.1748,1.1745,1.1747,1.1732,1.1753,1.1739,1.1735,1.173,1.1723,1.1837,1.1732,1.1732,1.1732,1.1733,1.1733,0,1.1659,1.1667,1.1657,1.1657,1.1648,1.1679,1.1681,1.1671,1.1654,1.1658,1.1651,1.1634,1.1623,1.1639,1.163,1.1615,1.1628,1.1611,1.1611,1.1612,1.1706,1.1714,1.1601,1.1601,1.1601,1.1601,1.1601,1.1601,1.1596,1.1565,1.1581,1.1552,1.1561,1.1543,1.1541,1.1541,1.1545,1.1525,1.1516,1.1528,1.1536,1.1529,1.1519,1.1525,1.1518,1.1497,1.1506,1.1592,1.1605,1.1618,1.1626,1.1496,1.1495,1.1413,1.1412,1.1412]}]]